sat.trackr.live / text

‹ back to catalog

ONEWEB-0080

NORAD 45426 · 2020-020C

PAYLOAD ACTIVE UNKNOWN

§ Identity

Operator
Country
UK
Launch date
2020-03-21
Launch site
TYMSC
Launch vehicle
Mass (kg)
RCS (m²)

Purposes: comms

External: N2YO · Heavens-Above · Gunter

§ Orbital elements

Epoch: 2026-05-25T03:25:12.227232Z

Period
109.81 min
Inclination
87.8917°
Eccentricity
0.0001482
Mean motion
13.11414729 rev/d
Perigee alt
1,216.6 km
Apogee alt
1,218.8 km
Semi-major
7,595.8 km
B*
-6.4466e-4
RAAN
25.6504°
Arg perigee
77.5324°
Mean anomaly
282.5970°
Rev number
29,968

§ Raw data

ONEWEB-00801 45426U 20020C   26145.14250263 -.00000216  00000+0 -64466-3 0  99952 45426  87.8917  25.6504 0001482  77.5324 282.5970 13.11414729299688

JSON: /api/v1/satellites/45426 · /tle

For live sub-satellite position, see the globe view (requires WebGL).

§ Visibility from observer

Set your observer location to see the next 7 days of passes ≥ 10°. The values pass through the URL so the page stays shareable.

No JS? Fill the form by hand. The geolocation button needs JavaScript.